weather.gov     
National Weather Service

Regional Weather Roundup
NWS Homepage
This page is being discontinued on March 12, 2014.
The same data is available at this site. Please update your bookmarks.
Thank you, and we apologize for the inconvenience.
Please send an email to SR-SRH.Webmaster@noaa.gov with any concerns.


Current Version
Previous Version:    01  02  03  04  05  06  07  08  09  10  11  12  13  14  15  16  17  18  19  20  21  22  23  24  25  26  27  28  29  30  
   31  32  33  34  35  36  37  38  39  40  41  42  43  44  45  46  47  48  49  50  51  52  53  54  
[Printable]
410
ASUS44 KMEG 240410
RWRMEG
MEMPHIS CWA HOURLY WEATHER ROUNDUP
NATIONAL WEATHER SERVICE MEMPHIS TN
1000 PM CST SUN NOV 23 2014

...WEST TENNESSEE...

CITY           SKY/WX    TMP DP  RH WIND       PRES   REMARKS
MEMPHIS INTL   PTCLDY    63  58  83 SW16G24   29.45F
NWS MEMPHIS      N/A     62 N/A N/A MISG        N/A
JACKSON        CLOUDY    62  57  83 S12       29.46S
LEXINGTON      CLOUDY    61  57  88 SW16      29.48S
SAVANNAH       CLOUDY    61  61 100 S8        29.52S
DYERSBURG      MOCLDY    61  48  63 S8G18     29.42S
UNION CITY     CLOUDY    57  57 100 S9        29.39F
PARIS          CLOUDY    57  55  94 SW12      29.44F
HUNTINGDON     CLOUDY    58  56  93 S9        29.45S


...EASTERN ARKANSAS...

CITY           SKY/WX    TMP DP  RH WIND       PRES   REMARKS
JONESBORO      MOCLDY    61  59  93 S23G31    29.36F
WEST MEMPHIS   CLEAR     61  60  97 S14       29.43S
BATESVILLE     MOCLDY    63  57  82 S12G20    29.34F
NEWPORT        CLOUDY    61  60  96 S18       29.36F
WALNUT RIDGE   CLOUDY    61  55  82 S20G25    29.33F
BLYTHEVILLE    CLOUDY    68  59  73 S15G23    29.39F
SEARCY         PTCLDY    61  59  93 S10       29.38F
STUTTGART      CLEAR     61  57  88 S18G24    29.42F
PINE BLUFF     CLEAR     62  56  80 S18G28    29.44S
MONTICELLO     CLEAR     63  58  83 SW12G25   29.50R


...NORTH MISSISSIPPI...

CITY           SKY/WX    TMP DP  RH WIND       PRES   REMARKS
TUPELO         CLEAR     58  55  90 S7        29.55R
OXFORD         CLEAR     57  55  94 S14G21    29.53S
OLIVE BRANCH   PTCLDY    59  59 100 S13G21    29.47S
TUNICA         CLEAR     59  57  94 S12G17    29.48S
CLARKSDALE     CLEAR     59  59 100 S13       29.49S
CORINTH        CLOUDY    63  57  82 S10G18    29.52R
GRENADA        CLEAR     61  55  82 SW10G17   29.54S
GREENWOOD      CLEAR     62  56  80 S15       29.55R
COLUMBUS       CLEAR     62  58  86 S8G18     29.59R
STARKVILLE     FAIR      63  57  82 S6        29.58R
GOLDEN TRIANGL CLEAR     61  55  82 S10       29.59R


...SOUTHEAST MISSOURI...

CITY           SKY/WX    TMP DP  RH WIND       PRES   REMARKS
WEST PLAINS    LGT RAIN  56  51  84 SW10      29.30F
POPLAR BLUFF   CLOUDY    58  56  93 S9        29.32F
CAPE GIRARDEAU CLOUDY    58  57  97 S13       29.33F


...NORTHWEST ALABAMA...

CITY           SKY/WX    TMP DP  RH WIND       PRES   REMARKS
MUSCLE SHOALS  CLOUDY    64  57  78 S16       29.56R


...MIDDLE TENNESSEE...

CITY           SKY/WX    TMP DP  RH WIND       PRES   REMARKS
NASHVILLE      LGT RAIN  61  57  88 SW10G24   29.50R
CLARKSVILLE    CLOUDY    61  58  90 SW16G25   29.43R
COLUMBIA       CLOUDY    63  63 100 SW14      29.51R


...WESTERN KENTUCKY...

CITY           SKY/WX    TMP DP  RH WIND       PRES   REMARKS
PADUCAH        CLOUDY    59  56  89 SW12G21   29.36R
FORT CAMPBELL  DRIZZLE   60  60 100 SW21G31   29.43R


...CENTRAL ARKANSAS...

CITY           SKY/WX    TMP DP  RH WIND       PRES   REMARKS
LITTLE ROCK    CLEAR     62  56  80 SW12G21   29.40S


SKY/WX REPORTED AS FAIR MEANS FEW OR NO CLOUDS BELOW
12 THOUSAND FEET.





U.S. Dept. of Commerce
NOAA National Weather Service
1325 East West Highway
Silver Spring, MD 20910
E-mail: w-nws.webmaster@noaa.gov
Page last modified: May 16, 2007
NATIONAL WEATHER SERVICE: for Safety, for Work, for Fun - FOR LIFE